{"data":{"norad_id":56790,"epoch":"2026-05-25T04:27:10.588608Z","epoch_age_seconds":55548,"freshness":"FRESH","line1":"1 56790U 23078Z   26145.18553922  .00000099  00000+0  16054-4 0  9997","line2":"2 56790  69.9993 111.6296 0003275 267.1349  92.9435 14.98336628165126","mean_motion":14.98336628,"eccentricity":0.0003275,"inclination_deg":69.9993,"raan_deg":111.6296,"arg_perigee_deg":267.1349,"mean_anomaly_deg":92.9435,"bstar":1.6054e-5,"rev_number":16512,"period_min":96.10657398946,"perigee_km":569.75921301753,"apogee_km":574.31157593591,"semimajor_km":6950.1723944767,"source":"CELESTRAK","updated_at":"2026-05-25T13:38:18.156140Z"}}